Location: Laas
(43.4693°N, 0.3073°E)
Time: 15:00:29
(UTC+00:00)

Cosmos 1892 - Pass Details

Date: 25 October 2020
Orbit: 504 x 523 km, 82.5° (Epoch: 24 November)

Event Time Altitude Azimuth Distance (km) Brightness Sun altitude
Rises 17:56:54 0° 4° (N) 2,662 6.2 -11.1°
Reaches altitude 10° 17:59:21 10° 18° (NNE) 1,770 5.2 -11.5°
Maximum altitude 18:02:34 24° 74° (ENE) 1,107 3.8 -12.1°
Enters shadow 18:05:25 12° 126° (SE) 1,643 4.8 -12.6°
